Weather History for Custer, SD

Change the Weather History Date:

Friday, May 3, 2013

  Actual Average Record
Temperature  
Mean Temperature 39 °F 44 °F  
Max Temperature 54 °F 57 °F 81 °F (1952)
Min Temperature 23 °F 32 °F 5 °F (1954)
Degree Days  
Heating Degree Days 26 20  
Month to date heating degree days 94 62  
Since 1 July heating degree days 7698 7712  
Cooling Degree Days 0 0  
Month to date cooling degree days 0 0  
Year to date cooling degree days 0 0  
Moisture  
Dew Point 18 °F    
Average Humidity 49    
Maximum Humidity 74    
Minimum Humidity 24    
Precipitation  
Precipitation 0.00 in 0.10 in 0.71 in (1991)
Month to date precipitation T 0.30  
Year to date precipitation 5.30 4.29  
Sea Level Pressure  
Sea Level Pressure 30.23 in    
Wind  
Wind Speed 6 mph (ENE)    
Max Wind Speed 15 mph    
Max Gust Speed 23 mph    
Visibility 10 miles    
Events      
T = Trace of Precipitation, MM = Missing Value Source: NWS Daily Summary

Daily Weather History Graph

Daily Weather History Graph

Search for Another Location

Airport:

Trip Planner

Search our weather history database for the weather conditions in past years. The results will help you decide how hot, cold, wet, or windy it might be!

Date:

Astronomy

May. 03, 2013 Rise Set
Actual Time 5:43 AM MDT 7:59 PM MDT
Civil Twilight 5:11 AM MDT 8:31 PM MDT
Nautical Twilight 4:32 AM MDT 9:11 PM MDT
Astronomical Twilight 3:48 AM MDT 9:55 PM MDT
Moon 2:21 AM MDT (5/3) 1:45 PM MDT (5/3)
Length of Visible Light 15h 19m
Length of Day
14h 16m
Last Quarter, 36% of the Moon is Illuminated
May 3
Last Quarter
May 9
New
May 17
First Quarter
May 24
Full
May 31
Last Quarter

Hourly Weather History & Observations

Time (MDT) Temp. Windchill Dew Point Humidity Pressure Visibility Wind Dir Wind Speed Gust Speed Precip Events Conditions
12:53 AM 25.0 °F 20.7 °F 18.0 °F 75% 30.41 in 10.0 mi NW 3.5 mph - N/A   Clear
1:53 AM 25.0 °F - 17.1 °F 72% 30.39 in 10.0 mi Calm Calm - N/A   Clear
2:53 AM 24.1 °F - 17.1 °F 75% 30.37 in 10.0 mi Calm Calm - N/A   Clear
3:53 AM 24.1 °F 19.7 °F 17.1 °F 75% 30.37 in 10.0 mi WNW 3.5 mph - N/A   Clear
4:53 AM 24.1 °F 19.7 °F 17.1 °F 75% 30.34 in 10.0 mi WNW 3.5 mph - N/A   Clear
5:53 AM 25.0 °F - 17.1 °F 72% 30.32 in 10.0 mi Calm Calm - N/A   Clear
6:53 AM 30.0 °F 26.5 °F 19.9 °F 66% 30.31 in 10.0 mi WNW 3.5 mph - N/A   Clear
7:53 AM 39.0 °F 34.8 °F 18.0 °F 43% 30.26 in 10.0 mi West 5.8 mph - N/A   Clear
8:53 AM 44.1 °F - 17.1 °F 34% 30.25 in 10.0 mi Calm Calm - N/A   Clear
9:53 AM 46.0 °F 42.5 °F 15.1 °F 29% 30.24 in 10.0 mi Variable 6.9 mph - N/A   Clear
10:53 AM 50.0 °F - 15.1 °F 25% 30.22 in 10.0 mi ENE 10.4 mph - N/A   Clear
11:53 AM 52.0 °F - 16.0 °F 24% 30.19 in 10.0 mi Variable 4.6 mph - N/A   Clear
12:53 PM 51.1 °F - 19.0 °F 28% 30.19 in 10.0 mi ESE 11.5 mph 18.4 mph N/A   Clear
1:53 PM 51.1 °F - 19.0 °F 28% 30.18 in 10.0 mi East 11.5 mph 17.3 mph N/A   Clear
2:53 PM 52.0 °F - 19.9 °F 28% 30.17 in 10.0 mi ESE 10.4 mph 17.3 mph N/A   Scattered Clouds
3:53 PM 52.0 °F - 19.9 °F 28% 30.15 in 10.0 mi East 11.5 mph 16.1 mph N/A   Mostly Cloudy
4:53 PM 50.0 °F - 21.0 °F 32% 30.15 in 10.0 mi East 10.4 mph - N/A   Overcast
5:53 PM 50.0 °F - 21.0 °F 32% 30.15 in 10.0 mi East 10.4 mph - N/A   Clear
6:53 PM 46.0 °F 41.4 °F 19.9 °F 35% 30.15 in 10.0 mi East 9.2 mph - N/A   Clear
7:53 PM 42.1 °F 37.1 °F 19.0 °F 40% 30.14 in 10.0 mi East 8.1 mph - N/A   Clear
8:53 PM 37.9 °F 32.7 °F 19.0 °F 47% 30.16 in 10.0 mi ENE 6.9 mph - N/A   Clear
9:53 PM 36.0 °F 32.1 °F 18.0 °F 48% 30.17 in 10.0 mi ENE 4.6 mph - N/A   Clear
10:53 PM 34.0 °F 28.0 °F 16.0 °F 48% 30.17 in 10.0 mi ENE 6.9 mph - N/A   Clear
11:53 PM 32.0 °F 28.7 °F 15.1 °F 50% 30.17 in 10.0 mi NNE 3.5 mph - N/A   Clear